Wind_Speed
28 28 29 29 30 30 31 31 32 32 32 33 33 33 34 34 34 34 33 33 33 33 33 33 34 33 33 33 33 33 33 34 34 34 35 35 36 36 36 37 37 38 38
28 28 29 29 30 30 31 31 32 32 33 33 34 35 35 35 35 35 35 35 35 35 35 34 34 34 34 34 34 34 35 34 34 35 35 36 36 37 37 37 38 38 38
28 28 29 30 31 31 32 32 33 33 34 34 35 35 36 37 37 37 36 36 36 36 36 35 35 35 35 35 35 35 36 36 36 36 36 37 37 38 38 38 38 39 39
28 28 30 31 32 32 33 34 34 34 34 35 35 36 36 36 37 37 37 37 37 36 36 36 36 36 36 36 36 36 36 37 37 38 38 38 38 38 38 39 39 40 40
27 28 29 31 32 32 33 34 35 35 35 35 36 37 38 38 38 37 38 38 38 36 35 36 36 37 37 37 37 38 38 38 39 39 39 38 38 38 38 38 39 40 40
28 29 29 30 31 33 34 34 35 36 36 36 36 37 37 38 38 38 38 38 38 38 37 35 35 36 37 38 38 38 39 39 38 38 38 38 38 39 39 40 40 40 41
27 28 29 31 32 33 34 35 35 36 36 37 37 37 37 37 37 38 38 38 38 37 38 38 37 37 37 38 38 38 38 39 39 39 40 40 40 41 41 41 41 41 42
27 28 30 31 32 33 34 35 36 37 37 38 38 38 37 37 37 37 38 39 38 38 38 39 40 39 39 38 38 39 39 40 40 41 41 41 42 42 42 42 42 42 42
26 28 29 30 31 32 33 34 35 36 37 38 38 38 38 38 38 38 38 38 39 39 39 39 40 40 41 40 39 39 40 41 42 42 42 42 42 42 42 42 42 42 42
26 28 29 29 30 31 32 33 34 35 36 37 38 39 39 39 39 39 39 39 39 39 40 40 40 41 42 42 42 42 41 42 42 42 42 43 43 43 43 43 43 43 43
24 26 28 29 29 30 31 31 32 33 35 36 37 38 39 39 40 40 40 40 40 40 40 41 41 42 43 43 44 44 44 43 43 43 44 44 44 44 44 44 45 45 45
24 25 26 28 29 30 31 31 32 33 34 35 36 37 38 39 40 40 41 41 42 42 42 43 43 43 44 44 44 44 44 44 44 44 45 45 46 46 45 46 46 46 46
24 25 26 28 29 30 31 32 32 33 34 35 36 37 38 39 40 41 42 43 43 44 44 44 44 44 44 44 44 45 45 45 45 46 46 46 46 46 46 46 46 47 47
24 25 27 28 29 29 30 31 32 33 34 35 36 37 38 39 40 41 42 42 42 43 43 43 44 44 45 45 46 46 46 46 46 47 47 47 47 47 47 47 47 48 48
25 25 26 27 28 29 30 31 32 33 34 36 36 37 37 38 39 40 41 42 43 43 43 44 44 44 45 46 47 47 47 46 47 47 47 48 48 48 48 49 49 49 49
26 26 26 27 28 29 30 31 32 33 34 35 37 37 37 38 39 40 41 42 43 44 44 45 46 46 46 46 46 47 46 47 47 47 47 48 48 48 49 49 49 50 50
26 27 28 29 30 30 31 32 33 34 34 35 36 37 38 39 40 40 41 42 43 44 45 45 46 46 46 46 46 46 46 47 47 48 48 48 48 48 49 49 50 50 49
28 29 30 30 31 31 32 33 34 34 35 36 38 39 39 40 41 41 42 43 43 43 44 44 45 45 45 45 45 46 46 47 47 48 48 48 48 49 49 49 49 49 49
29 30 31 32 32 33 34 34 36 37 37 38 38 39 40 41 42 43 43 43 43 43 43 44 44 44 44 45 45 46 46 47 47 47 48 48 48 48 49 49 49 49 49
32 32 33 34 34 35 36 36 37 38 39 39 40 41 42 43 43 43 43 43 44 43 44 44 44 45 45 45 45 46 46 47 47 47 48 48 48 48 49 49 48 48 48
34 34 35 35 36 37 38 38 39 40 41 41 42 43 44 44 44 44 44 43 43 43 44 44 44 45 45 45 45 46 46 46 46 46 47 47 47 48 48 48 47 47 47
36 37 37 37 38 39 40 40 41 42 43 44 44 44 45 45 44 44 44 44 43 43 43 43 44 44 44 44 44 45 45 45 46 46 46 47 47 47 47 46 45 45 45
38 39 39 40 41 41 42 42 43 44 45 45 45 45 44 44 44 44 44 44 44 43 43 43 43 43 43 43 43 44 44 44 44 45 45 45 45 45 45 44 44 44 43
40 41 41 42 42 43 43 44 45 45 45 45 45 45 44 44 43 43 43 43 43 43 43 43 43 43 43 43 43 43 43 43 43 43 43 43 42 42 42 42 42 41 41
42 42 43 43 43 44 44 45 45 45 44 44 44 44 44 44 43 43 43 43 43 43 43 43 43 43 43 43 42 42 42 42 41 41 41 41 40 40 40 40 39 39 39
42 43 43 43 44 44 44 45 45 44 44 43 43 44 43 43 43 43 43 43 43 43 43 43 42 42 42 42 42 41 41 40 40 39 39 39 38 38 38 37 38 38 38
Wind_Direction
228 230 232 236 238 240 242 245 247 250 253 254 257 259 260 262 264 265 268 269 271 272 274 276 277 277 278 279 280 281 281 280 280 281 282 282 283 283 283 283 283 283 283
229 233 234 236 239 241 244 247 250 252 254 256 258 260 262 263 264 265 267 269 271 273 273 275 276 276 276 277 278 279 279 281 282 283 282 283 284 284 284 283 283 283 283
231 234 237 238 242 245 247 249 252 255 257 258 259 261 263 264 265 266 268 269 272 273 273 274 274 275 275 276 277 278 279 281 282 283 283 283 283 284 285 284 284 284 283
234 238 241 243 245 247 250 251 253 256 257 258 260 261 262 264 265 267 269 269 271 272 272 273 273 274 275 276 276 278 279 280 282 283 283 283 284 284 283 284 284 283 283
238 242 244 247 248 249 251 252 254 256 258 259 261 262 263 264 266 267 268 269 271 272 272 272 273 274 275 276 276 277 278 280 282 284 285 284 286 286 285 284 284 284 283
242 245 247 248 250 251 252 253 255 257 258 260 261 262 264 265 266 267 269 270 272 272 273 273 274 275 275 276 277 277 278 280 282 284 284 285 286 287 286 284 284 283 284
245 248 250 251 253 254 254 255 256 258 259 260 261 262 264 266 267 268 269 271 272 273 273 274 274 275 276 276 277 277 278 280 281 283 284 285 286 287 287 286 285 284 284
249 251 252 253 254 255 256 257 258 259 260 261 262 263 264 266 268 269 270 271 272 273 274 275 275 275 276 277 277 277 278 280 281 282 283 284 286 286 286 286 286 285 285
251 252 253 255 256 258 259 260 261 261 261 262 263 264 265 266 268 270 271 271 272 273 273 274 275 275 276 277 278 278 279 280 281 282 283 284 286 287 287 287 286 286 285
254 255 257 258 260 261 262 263 263 262 263 263 264 265 266 266 268 269 270 271 272 273 273 274 275 276 276 277 277 278 279 280 281 282 283 285 285 286 287 286 286 285 285
259 260 260 261 262 263 263 264 265 265 265 265 265 266 266 267 268 270 270 270 271 272 273 274 275 275 276 276 278 279 280 281 281 282 283 284 286 286 286 285 285 285 285
262 262 263 263 263 264 264 265 267 268 268 268 268 269 269 269 269 270 270 271 272 272 273 274 275 275 276 277 278 279 280 281 282 283 284 284 285 285 285 285 285 285 285
265 265 266 266 266 266 266 267 268 270 271 271 271 271 271 271 271 271 272 272 273 273 274 275 275 276 276 277 278 279 280 280 281 282 284 285 285 285 286 286 285 285 286
267 267 268 269 269 269 269 270 270 271 272 273 274 274 274 273 273 273 274 274 274 274 274 275 276 276 277 277 278 279 279 280 281 282 283 284 285 286 286 287 286 286 286
270 270 270 270 270 271 272 273 273 274 275 276 276 276 276 276 276 276 276 276 275 275 275 275 276 277 277 278 278 278 279 279 281 282 283 284 285 286 286 287 287 287 286
273 273 273 272 272 273 274 275 276 276 277 278 277 277 277 277 278 278 278 278 277 277 276 276 277 277 278 278 279 279 279 280 281 283 284 285 286 286 286 286 287 287 287
276 275 275 275 275 275 276 277 278 278 279 280 279 278 278 279 279 280 279 279 279 278 278 277 277 278 278 278 278 278 279 280 281 282 284 285 286 286 286 287 287 287 287
278 277 277 278 277 277 278 279 280 280 281 281 281 280 280 280 280 281 281 280 280 279 279 279 278 279 279 278 278 279 279 280 281 283 284 285 285 286 287 287 287 287 288
280 280 279 279 279 278 279 280 281 282 282 283 283 282 281 281 282 282 281 281 280 280 279 279 279 279 279 279 279 279 280 280 282 283 284 285 285 286 287 287 287 287 288
282 281 281 280 280 280 280 281 282 283 283 283 283 283 283 282 283 282 281 281 280 280 280 279 279 279 279 280 280 280 281 281 282 283 283 284 285 286 287 289 289 288 289
282 283 283 282 282 282 282 283 283 283 284 283 283 283 284 283 283 282 282 281 281 280 280 280 280 280 280 280 281 282 282 282 283 283 284 284 286 287 288 289 289 289 290
282 282 283 283 283 284 284 284 284 284 285 284 283 284 284 283 282 282 281 281 281 281 281 281 280 280 280 281 282 282 282 283 284 284 284 285 286 287 288 289 289 290 290
282 282 283 284 284 285 285 285 285 285 285 285 284 284 284 284 283 282 281 281 281 281 281 281 281 281 281 282 282 282 283 284 284 285 285 286 287 288 289 289 289 290 291
282 283 283 284 285 286 286 286 286 286 286 285 284 284 283 283 283 282 282 281 281 281 281 281 281 282 282 283 283 283 283 284 285 286 286 287 287 289 289 290 290 290 291
284 284 285 285 286 286 287 287 287 286 286 285 284 283 283 283 282 282 282 281 281 281 281 281 282 282 282 282 282 283 284 285 286 286 287 287 288 289 289 290 290 291 292
285 285 286 286 287 287 288 287 287 286 286 284 284 284 283 282 281 281 281 281 281 281 281 282 282 281 281 281 282 283 284 285 285 286 286 288 289 290 290 291 292 293 294
Height
5770 5773 5775 5778 5780 5783 5785 5787 5789 5791 5792 5794 5795 5796 5796 5797 5797 5797 5797 5797 5796 5796 5795 5795 5794 5793 5792 5791 5790 5788 5787 5785 5784 5782 5781 5779 5777 5775 5773 5771 5770 5768 5767
5765 5768 5770 5772 5775 5777 5779 5781 5783 5784 5786 5787 5788 5788 5789 5789 5789 5790 5789 5789 5788 5788 5787 5787 5786 5785 5784 5783 5782 5780 5779 5777 5775 5774 5772 5771 5770 5767 5765 5763 5761 5759 5757
5761 5763 5765 5767 5769 5771 5773 5775 5776 5777 5778 5779 5780 5781 5781 5781 5781 5781 5781 5780 5780 5779 5779 5778 5777 5776 5775 5774 5773 5772 5771 5769 5767 5766 5764 5763 5761 5758 5756 5754 5751 5749 5748
5756 5758 5760 5761 5763 5765 5766 5768 5769 5770 5771 5772 5773 5773 5773 5773 5773 5773 5772 5772 5771 5771 5770 5770 5769 5768 5767 5766 5765 5763 5762 5760 5759 5757 5755 5753 5751 5750 5748 5745 5742 5740 5738
5750 5752 5754 5755 5757 5758 5760 5761 5762 5762 5763 5764 5765 5765 5765 5765 5765 5764 5764 5763 5762 5762 5761 5760 5760 5759 5758 5757 5756 5754 5753 5751 5750 5748 5746 5744 5742 5739 5738 5736 5733 5730 5727
5745 5747 5748 5749 5750 5751 5752 5753 5754 5755 5755 5756 5756 5756 5757 5756 5756 5756 5755 5755 5754 5753 5752 5752 5751 5750 5749 5747 5746 5745 5744 5742 5740 5738 5736 5734 5732 5730 5727 5725 5723 5720 5717
5740 5741 5742 5742 5743 5744 5745 5745 5746 5746 5747 5747 5747 5748 5748 5748 5747 5747 5746 5746 5745 5744 5743 5743 5742 5741 5739 5738 5737 5736 5734 5732 5731 5729 5727 5724 5722 5720 5717 5715 5712 5710 5707
5734 5734 5735 5736 5736 5737 5737 5737 5738 5738 5739 5739 5739 5739 5739 5739 5738 5738 5737 5737 5736 5735 5734 5733 5732 5731 5730 5729 5727 5726 5724 5723 5721 5719 5717 5714 5712 5709 5706 5704 5701 5699 5696
5727 5728 5728 5728 5729 5729 5729 5729 5730 5730 5730 5730 5730 5730 5730 5730 5729 5728 5728 5727 5726 5725 5724 5723 5722 5721 5720 5719 5717 5716 5714 5712 5710 5708 5706 5704 5701 5698 5696 5693 5690 5688 5685
5721 5721 5721 5721 5721 5722 5721 5721 5721 5721 5721 5721 5721 5721 5720 5720 5720 5719 5718 5717 5716 5715 5714 5713 5712 5711 5710 5708 5707 5706 5704 5702 5700 5697 5695 5693 5690 5687 5684 5681 5679 5676 5674
5714 5714 5714 5714 5714 5714 5714 5713 5713 5712 5712 5712 5711 5711 5711 5710 5709 5709 5708 5707 5706 5705 5704 5703 5702 5700 5699 5697 5696 5694 5692 5691 5688 5686 5684 5681 5679 5676 5673 5670 5667 5664 5662
5708 5707 5707 5707 5707 5706 5706 5706 5705 5704 5704 5703 5702 5702 5701 5700 5699 5698 5698 5697 5696 5694 5693 5692 5691 5689 5688 5686 5684 5683 5680 5679 5676 5674 5672 5669 5666 5664 5661 5658 5655 5652 5649
5701 5701 5700 5700 5699 5699 5698 5698 5697 5696 5695 5694 5693 5692 5691 5690 5689 5688 5687 5686 5684 5683 5682 5680 5679 5677 5676 5674 5672 5670 5668 5666 5664 5662 5659 5657 5654 5651 5648 5645 5642 5639 5636
5695 5694 5693 5693 5692 5691 5690 5690 5689 5688 5686 5685 5684 5683 5681 5680 5679 5677 5676 5675 5673 5672 5670 5669 5667 5665 5664 5662 5660 5658 5656 5654 5651 5649 5647 5644 5641 5638 5635 5632 5629 5626 5623
5688 5687 5686 5685 5684 5683 5682 5681 5680 5679 5677 5676 5674 5673 5671 5670 5668 5667 5665 5663 5662 5660 5658 5657 5655 5653 5651 5649 5647 5645 5643 5641 5639 5636 5634 5631 5628 5625 5622 5619 5616 5612 5609
5681 5680 5679 5678 5677 5676 5674 5673 5671 5670 5668 5667 5664 5663 5661 5659 5657 5656 5654 5652 5650 5648 5646 5644 5643 5641 5638 5636 5634 5632 5630 5628 5626 5623 5620 5618 5615 5612 5608 5605 5602 5599 5595
5674 5672 5671 5670 5669 5667 5666 5664 5662 5660 5659 5657 5655 5653 5651 5649 5647 5645 5643 5640 5638 5636 5634 5632 5630 5628 5625 5623 5621 5619 5617 5615 5613 5610 5607 5604 5601 5598 5595 5591 5588 5584 5581
5666 5664 5663 5662 5660 5658 5657 5655 5653 5651 5649 5647 5645 5642 5640 5638 5636 5633 5631 5628 5626 5624 5621 5619 5617 5615 5613 5610 5608 5606 5604 5602 5599 5597 5594 5591 5588 5584 5581 5578 5574 5570 5567
5657 5656 5654 5652 5650 5649 5647 5645 5643 5641 5639 5637 5634 5632 5629 5627 5624 5622 5619 5616 5614 5611 5609 5607 5605 5602 5600 5597 5595 5593 5591 5589 5586 5583 5581 5578 5575 5571 5568 5565 5561 5557 5553
5647 5646 5644 5642 5640 5638 5636 5635 5632 5630 5627 5625 5623 5620 5617 5615 5612 5609 5606 5604 5601 5599 5597 5595 5592 5590 5587 5585 5582 5580 5578 5576 5573 5570 5567 5564 5561 5558 5554 5551 5547 5544 5540
5637 5635 5634 5632 5629 5627 5625 5623 5621 5618 5616 5613 5611 5608 5605 5602 5599 5596 5594 5591 5589 5587 5585 5582 5580 5577 5574 5572 5569 5567 5564 5562 5559 5557 5554 5551 5548 5545 5541 5538 5534 5531 5527
5627 5624 5623 5620 5618 5615 5614 5611 5609 5606 5603 5600 5598 5595 5592 5589 5586 5584 5581 5579 5576 5574 5572 5569 5567 5564 5562 5559 5556 5554 5551 5549 5546 5543 5540 5537 5534 5531 5528 5525 5521 5518 5514
5615 5613 5611 5608 5605 5603 5600 5598 5596 5593 5590 5587 5584 5582 5579 5576 5573 5571 5568 5566 5564 5561 5559 5557 5554 5552 5549 5546 5544 5541 5538 5536 5533 5531 5528 5525 5522 5519 5515 5512 5509 5505 5501
5603 5600 5598 5595 5593 5590 5587 5584 5582 5579 5576 5573 5571 5568 5565 5563 5560 5558 5555 5553 5551 5548 5546 5544 5542 5539 5537 5534 5531 5529 5526 5524 5521 5518 5515 5513 5510 5507 5503 5500 5497 5493 5490
5590 5587 5585 5582 5579 5576 5573 5570 5568 5565 5562 5560 5557 5554 5552 5549 5547 5545 5542 5540 5538 5535 5533 5531 5529 5527 5525 5522 5519 5517 5514 5512 5509 5506 5504 5501 5498 5495 5492 5488 5485 5482 5478
5577 5574 5571 5569 5566 5563 5560 5557 5554 5551 5549 5546 5543 5541 5538 5536 5534 5532 5529 5527 5525 5523 5520 5518 5516 5514 5512 5509 5507 5505 5502 5500 5497 5495 5493 5490 5487 5484 5481 5478 5474 5471 5467